(75) Eurydike
ephemeris date magn radius delta ra dec elong phase
Today4 Sep 202615.43.435 AU4.424 AU11h28m+03°48'10.1°2.9°
Opposition16 Apr 202713.43.051 AU2.048 AU13h33m-13°22'176.6°1.1°
(75) Eurydike - 2026-09-04
astro.vanbuitenen.nl


 
-1 year
-1 month
-1 day
Now
+1 day
+1 month
+1 year

The interactive orbit chart above shows the body's path through the solar system and its position at the given date. Green and blue lines are shown perpendicular to the ecliptic plane: Green if the path is above the ecliptic plane, blue if it is below. (Left-click and drag to rotate the view; Right-click and drag to move the view; Use scroll wheel to zoom in our out.)

The orbital elements of Eurydike are:

            e (Eccentricity)                : 0.3060385
            a (Semimajor axis)              : 2.6714364
            i (Inclination)                 : 4.99725
            Ω (Longitude of ascending node) : 359.10448
            ω (Argument of perihelion)      : 339.64000
            M (Mean anomaly)                : 187.58396
            Epoch                           : 2026 Jun 09

            L (Longitude of perihelion)     : 338.81555
            B (Latitude of perihelion)      : -1.73669
            P (Orbital period in years)     : 4.37            
        

The light curve chart below shows the estimated development of the minor planet's magnitude.


The all-sky chart below shows the path of the minor planet over the same period as the light curve. The current position is marked yellow.





The following chart shows the path of the minor planet in the next few days. The field of view is optimized for (~10x50) binoculars and finderscopes.




Ephemerides:
Date       Time       RA (2000)    DEC (2000)    delta   radius  elong  phase   PA    magn
2026-09-04 00:00 UT   11 28 06.6   +03 48 34     4.424    3.435   10.1    2.9   111   15.4 
2026-09-04 22:20 UT   11 29 11.2   +03 41 06     4.425    3.434    9.4    2.8   111   15.4 
2026-09-05 00:00 UT   11 29 16.1   +03 40 33     4.425    3.434    9.4    2.7   111   15.4 
2026-09-06 00:00 UT   11 30 25.6   +03 32 31     4.426    3.433    8.8    2.6   111   15.4 
2026-09-07 00:00 UT   11 31 35.2   +03 24 28     4.427    3.432    8.1    2.4   111   15.4 
2026-09-08 00:00 UT   11 32 44.9   +03 16 25     4.428    3.431    7.5    2.2   111   15.4 
2026-09-09 00:00 UT   11 33 54.7   +03 08 21     4.429    3.430    6.8    2.0   111   15.4 
2026-09-10 00:00 UT   11 35 04.5   +03 00 16     4.429    3.429    6.1    1.8   111   15.4 
2026-09-11 00:00 UT   11 36 14.4   +02 52 11     4.429    3.428    5.5    1.6   110   15.3 
2026-09-12 00:00 UT   11 37 24.3   +02 44 04     4.430    3.428    4.8    1.4   110   15.3 
2026-09-13 00:00 UT   11 38 34.3   +02 35 57     4.429    3.427    4.2    1.2   110   15.3 
2026-09-14 00:00 UT   11 39 44.3   +02 27 50     4.429    3.426    3.5    1.0   109   15.3 
2026-09-15 00:00 UT   11 40 54.4   +02 19 42     4.429    3.425    2.9    0.8   109   15.3 
2026-09-16 00:00 UT   11 42 04.6   +02 11 33     4.428    3.424    2.2    0.7   107   15.2 
2026-09-17 00:00 UT   11 43 14.7   +02 03 24     4.427    3.423    1.6    0.5   105   15.2 
2026-09-18 00:00 UT   11 44 24.9   +01 55 15     4.427    3.422    0.9    0.3   100   15.2 
2026-09-19 00:00 UT   11 45 35.2   +01 47 05     4.425    3.421    0.3    0.1    76   15.2 
2026-09-20 00:00 UT   11 46 45.4   +01 38 55     4.424    3.420    0.4    0.1   320   15.2 
2026-09-21 00:00 UT   11 47 55.7   +01 30 44     4.423    3.419    1.1    0.3   304   15.2 
2026-09-22 00:00 UT   11 49 06.0   +01 22 33     4.421    3.418    1.7    0.5   299   15.2 
2026-09-23 00:00 UT   11 50 16.4   +01 14 22     4.419    3.417    2.4    0.7   298   15.2 
2026-09-24 00:00 UT   11 51 26.7   +01 06 10     4.417    3.416    3.0    0.9   296   15.3 
2026-09-25 00:00 UT   11 52 37.1   +00 57 59     4.415    3.414    3.7    1.1   296   15.3 
2026-09-26 00:00 UT   11 53 47.5   +00 49 47     4.413    3.413    4.3    1.3   295   15.3 
2026-09-27 00:00 UT   11 54 57.9   +00 41 34     4.410    3.412    5.0    1.5   295   15.3 
2026-09-28 00:00 UT   11 56 08.3   +00 33 22     4.407    3.411    5.6    1.7   295   15.3 
2026-09-29 00:00 UT   11 57 18.7   +00 25 10     4.404    3.410    6.3    1.8   294   15.3 
2026-09-30 00:00 UT   11 58 29.1   +00 16 57     4.401    3.409    6.9    2.0   294   15.3 


    Terminology:
            
    delta:  distance between minor planet and earth in AU
    radius: distance between minor planet and sun in AU
    magn:   magnitude (brightness) estimate    
    ra:     right ascension in hours (24h = 360deg)
    dec:    declination in degrees
    elong:  elongation in degrees (angle sun-earth-minor planet)    
    phase:  phase angle in degrees (angle sun-minor planet-earth)        
    AU:     Astronomical Unit (mean distance between earth and sun: 149597870.7 km
    

Orbital elements provided by the MPC (Minor Planet Center).
Calculations by a modified version of AAPlus, a C# implementation of the AA+ project by PJ Naughter from the algorithms presented in the book "Astronomical Algorithms" by Jean Meeus.
NGC2000 dso catalog and star labels from VizieR as provided by the Strasbourg astronomical Data Center.
Tycho2 catalog from the ESO archive.